This demonstration page uses our WeatherBlox Daily Observations layout. Learn more.

Left ArrowRight Arrow

39.51506, -84.39828

Hourly Observations for December 15, 2015

Temp ( °F °C ) Dew Point ( °F °C ) Humidity (%) Winds ( mph kmh ) Pressure ( in mb ) Visibility ( mi km ) Precip ( " mm )
12:15 am 00:15 Cloudy 49 9.6 41 5.1 74 74 WSW 15 24 29.71 1006 10 16.0934 N/A
12:35 am 00:35 Cloudy 49 9.6 42 5.5 76 76 WSW 14 22 29.71 1006 10 16.0934 N/A
12:55 am 00:55 Cloudy 49 9.6 39 4.1 69 69 WSW 13 20 29.74 1007 10 16.0934 N/A
1:15 am 01:15 Cloudy 49 9.6 39 4.1 69 69 W 14 22 29.74 1007 10 16.0934 N/A
1:35 am 01:35 Cloudy 49 9.6 40 4.6 71 71 WSW 18 30 29.74 1007 10 16.0934 N/A
1:55 am 01:55 Cloudy 49 9.6 41 5.2 74 74 WSW 13 20 29.77 1008 10 16.0934 N/A
2:15 am 02:15 Cloudy 49 9.6 41 5.2 74 74 WSW 10 17 29.77 1008 10 16.0934 N/A
2:35 am 02:35 Mostly Cloudy 47 8.3 39 3.7 73 73 WSW 9 15 29.77 1008 10 16.0934 N/A
2:55 am 02:55 Mostly Cloudy 47 8.2 39 3.7 74 74 WSW 10 17 29.8 1009 10 16.0934 N/A
3:15 am 03:15 Cloudy 47 8.2 38 3.1 71 71 W 9 15 29.8 1009 10 16.0934 N/A
3:35 am 03:35 Cloudy 47 8.2 39 3.8 74 74 W 10 17 29.8 1009 10 16.0934 N/A
3:55 am 03:55 Cloudy 47 8.2 40 4.2 76 76 W 8 13 29.83 1010 10 16.0934 N/A
4:15 am 04:15 Cloudy 47 8.2 40 4.6 78 78 W 8 13 29.83 1010 10 16.0934 N/A
4:35 am 04:35 Cloudy with Mist and Fog 44 6.8 40 4.2 84 84 WNW 8 13 29.83 1010 4 6.43736 N/A
4:55 am 04:55 Cloudy 44 6.5 39 4 84 84 SW 7 11 29.83 1010 10 16.0934 N/A
5:15 am 05:15 Mostly Cloudy 44 6.9 38 3.4 79 79 WSW 8 13 29.83 1010 10 16.0934 N/A
5:35 am 05:35 Cloudy 47 8.1 39 4.1 76 76 WSW 12 19 29.83 1010 10 16.0934 N/A
5:55 am 05:55 Cloudy 44 6.8 38 3.3 79 79 WSW 12 19 29.85 1011 10 16.0934 N/A
6:15 am 06:15 Cloudy 45 7 38 3.4 78 78 SW 7 11 29.85 1011 10 16.0934 N/A
6:35 am 06:35 Cloudy 44 6.8 38 3.3 79 79 WSW 12 19 29.85 1011 10 16.0934 N/A
6:55 am 06:55 Cloudy with Mist and Fog 43 6.3 39 3.7 84 84 W 8 13 29.85 1011 5 8.0467 N/A
7:15 am 07:15 Cloudy with Mist and Fog 43 6.1 39 4 87 87 W 7 11 29.85 1011 3 4.82802 N/A
7:35 am 07:35 Cloudy with Light Snow 43 6.1 39 4.1 87 87 W 8 13 29.88 1012 2 3.21868 N/A
7:55 am 07:55 Cloudy with Light Snow 43 6.1 39 4.1 87 87 W 8 13 29.88 1012 3 4.82802 N/A
8:15 am 08:15 Cloudy with Mist and Fog 43 6.1 39 4.1 87 87 W 6 9 29.91 1013 3 4.82802 N/A
8:35 am 08:35 Cloudy 43 6.2 39 4.1 87 87 WSW 6 9 29.91 1013 10 16.0934 N/A
8:55 am 08:55 Cloudy 43 6.2 39 4 86 86 WSW 8 13 29.91 1013 10 16.0934 N/A
9:15 am 09:15 Cloudy with Mist and Fog 43 6.1 39 4.1 87 87 WSW 9 15 29.94 1014 2.5 4.02335 N/A
9:35 am 09:35 Cloudy with Mist and Fog 43 6.1 39 4 87 87 W 8 13 29.94 1014 4 6.43736 N/A
9:55 am 09:55 Cloudy 43 6.3 39 4.1 86 86 W 6 9 29.94 1014 10 16.0934 N/A
10:15 am 10:15 Cloudy 43 6.3 38 3.6 83 83 W 9 15 29.97 1015 10 16.0934 N/A
10:35 am 10:35 Cloudy 44 6.9 38 3.3 78 78 WSW 14 22 29.97 1015 10 16.0934 N/A
10:55 am 10:55 Cloudy 44 6.8 38 3.1 78 78 W 12 19 29.97 1015 10 16.0934 N/A
11:15 am 11:15 Cloudy 45 7 37 2.6 74 74 W 12 19 29.97 1015 10 16.0934 N/A
11:35 am 11:35 Cloudy 45 7 37 2.6 74 74 W 10 17 29.97 1015 10 16.0934 N/A
11:55 am 11:55 Cloudy 44 6.8 37 2.5 74 74 W 8 13 29.97 1015 10 16.0934 N/A
12:15 pm 12:15 Cloudy 45 7 37 2.6 74 74 W 7 11 29.97 1015 10 16.0934 N/A
12:35 pm 12:35 Cloudy 44 6.9 37 2.6 74 74 WSW 8 13 29.97 1015 10 16.0934 N/A
12:55 pm 12:55 Cloudy 45 7.2 37 2.9 74 74 W 9 15 29.97 1015 10 16.0934 N/A
1:15 pm 13:15 Cloudy 44 6.8 37 2.5 74 74 W 7 11 29.97 1015 10 16.0934 N/A
1:35 pm 13:35 Cloudy 44 6.9 37 2.8 75 75 W 6 9 29.94 1014 10 16.0934 N/A
1:55 pm 13:55 Cloudy 44 6.8 37 2.5 74 74 W 5 7 29.94 1014 10 16.0934 N/A
2:15 pm 14:15 Cloudy 44 6.8 37 2.5 74 74 W 3 6 29.94 1014 10 16.0934 N/A
2:35 pm 14:35 Cloudy 47 8.1 39 3.7 74 74 WNW 3 6 29.94 1014 10 16.0934 N/A
2:55 pm 14:55 Cloudy 47 8.2 38 3.4 72 72 SW 5 7 29.94 1014 10 16.0934 N/A
3:15 pm 15:15 Cloudy 47 8.2 38 3.5 73 73 N N/A 29.94 1014 10 16.0934 N/A
3:35 pm 15:35 Cloudy 47 8.2 38 3.3 72 72 W 5 7 29.97 1015 10 16.0934 N/A
3:55 pm 15:55 Cloudy 47 8.2 38 3.1 71 71 N N/A 29.97 1015 10 16.0934 N/A
4:15 pm 16:15 Cloudy 47 8.2 38 3.1 71 71 N N/A 29.97 1015 10 16.0934 N/A
4:35 pm 16:35 Cloudy 47 8.2 38 3.3 72 72 W 3 6 29.97 1015 10 16.0934 N/A
4:55 pm 16:55 Cloudy 46 7.5 37 2.8 72 72 W 3 6 29.97 1015 10 16.0934 N/A
5:15 pm 17:15 Cloudy 46 7.6 37 2.9 72 72 W 5 7 29.97 1015 10 16.0934 N/A
5:35 pm 17:35 Cloudy 44 6.9 37 2.6 74 74 NNW 3 6 29.97 1015 10 16.0934 N/A
5:55 pm 17:55 Cloudy 44 6.8 37 2.5 74 74 N N/A 29.97 1015 10 16.0934 N/A
6:15 pm 18:15 Cloudy 44 6.8 37 2.5 74 74 N N/A 29.97 1015 10 16.0934 N/A
6:35 pm 18:35 Cloudy 44 6.8 37 2.7 75 75 NNE 3 6 29.97 1015 10 16.0934 N/A
6:55 pm 18:55 Cloudy 44 6.8 37 2.8 76 76 NE 3 6 29.97 1015 10 16.0934 N/A
7:15 pm 19:15 Cloudy 44 6.8 37 2.6 75 75 NE 3 6 30 1016 10 16.0934 N/A
7:35 pm 19:35 Cloudy 44 6.8 37 2.5 74 74 NE 3 6 30 1016 10 16.0934 N/A
7:55 pm 19:55 Cloudy 44 6.8 37 2.6 75 75 NE 3 6 30 1016 10 16.0934 N/A
8:15 pm 20:15 Cloudy 44 6.8 37 2.8 76 76 NE 5 7 30 1016 10 16.0934 N/A
8:35 pm 20:35 Cloudy 44 6.8 37 3 77 77 NE 5 7 30 1016 10 16.0934 N/A
8:55 pm 20:55 Cloudy 44 6.8 37 3 77 77 N N/A 30 1016 10 16.0934 N/A
9:15 pm 21:15 Cloudy 44 6.8 38 3.2 78 78 N N/A 30 1016 10 16.0934 N/A
9:35 pm 21:35 Cloudy 44 6.7 38 3.2 79 79 N N/A 30 1016 10 16.0934 N/A
9:55 pm 21:55 Mostly Cloudy 43 6.1 37 2.7 79 79 N N/A 30 1016 10 16.0934 N/A
10:15 pm 22:15 Partly Cloudy 42 5.5 37 2.5 81 81 N N/A 30 1016 10 16.0934 N/A
10:35 pm 22:35 Clear 42 5.4 37 2.9 84 84 N N/A 30 1016 10 16.0934 N/A
10:55 pm 22:55 Mostly Cloudy 39 4 36 2 87 87 N N/A 30 1016 7 11.26538 N/A
11:15 pm 23:15 Cloudy 40 4.5 37 2.5 87 87 NNE 3 6 30 1016 10 16.0934 N/A
11:35 pm 23:35 Mostly Cloudy 40 4.7 37 2.8 88 88 N N/A 30 1016 10 16.0934 N/A
11:55 pm 23:55 Clear 40 4.6 37 2.6 87 87 ENE 5 7 29.97 1015 10 16.0934 N/A

Powered by AerisWeather